GW6394 Weather Reports


time (UTC)temp
C
wind
direction
speed
KPH
gust
KPH
rain 1hr
cm
rain 24hr
cm
rain mn
cm
humidity
%
barometer
mb
20260506232004 8 280 1.6 11.3 0.00 0.00 0.00 91 1008.2
20260506231515 9 344 1.6 11.3 0.00 0.00 0.00 90 1008.2
20260506231003 9 256 1.6 4.8 0.00 0.00 0.00 91 1008.2
20260506230509 10 277 0.0 8.0 0.00 0.00 0.00 91 1008.1
20260506230022 10 257 3.2 8.0 0.00 0.00 0.00 90 1008.1
20260506225512 10 227 3.2 8.0 0.00 0.00 0.00 90 1007.9
20260506225009 11 188 0.0 6.4 0.00 0.00 0.00 91 1007.5
20260506224526 11 205 1.6 8.0 0.00 0.00 0.00 90 1007.6
20260506224010 11 235 3.2 8.0 0.00 0.00 0.00 88 1007.9
20260506223506 12 213 1.6 9.7 0.00 0.00 0.00 88 1007.6
20260506223026 13 255 3.2 9.7 0.00 0.00 0.00 87 1007.7
20260506222507 14 206 1.6 6.4 0.00 0.00 0.00 89 1007.1
20260506222012 14 196 1.6 4.8 0.00 0.00 0.00 88 1006.9
20260506221527 14 198 1.6 4.8 0.00 0.00 0.00 88 1006.8
20260506221009 14 202 1.6 4.8 0.00 0.00 0.00 88 1006.8
20260506220504 15 199 1.6 4.8 0.00 0.00 0.00 88 1006.8
20260506220018 15 143 1.6 6.4 0.00 0.00 0.00 88 1006.8
20260506215508 15 214 1.6 6.4 0.00 0.00 0.00 87 1006.7
20260506215008 15 162 1.6 6.4 0.00 0.00 0.00 88 1006.7
20260506214523 15 204 3.2 6.4 0.00 0.00 0.00 88 1006.7
20260506214008 15 174 1.6 4.8 0.00 0.00 0.00 89 1006.7
20260506213506 14 223 1.6 4.8 0.00 0.00 0.00 89 1006.6
20260506213026 14 213 1.6 4.8 0.00 0.00 0.00 89 1006.5
20260506212509 14 151 1.6 4.8 0.00 0.00 0.00 90 1006.5
20260506212009 14 149 1.6 3.2 0.00 0.00 0.00 90 1006.6
20260506211527 13 200 1.6 6.4 0.00 0.00 0.00 90 1006.7
20260506211011 13 200 1.6 6.4 0.00 0.00 0.00 90 1006.7
20260506210512 14 182 1.6 4.8 0.00 0.00 0.00 90 1006.6
20260506210031 14 144 1.6 4.8 0.00 0.00 0.00 91 1006.6
20260506205505 14 213 1.6 3.2 0.00 0.00 0.00 91 1006.7
20260506205005 13 140 1.6 3.2 0.00 0.00 0.00 90 1006.6
20260506204520 14 214 1.6 3.2 0.00 0.00 0.00 91 1006.6
20260506204007 13 195 1.6 3.2 0.00 0.00 0.00 91 1006.6
20260506203509 13 154 1.6 3.2 0.00 0.00 0.00 91 1006.4
20260506203024 13 141 1.6 4.8 0.00 0.00 0.00 91 1006.4
20260506202507 13 198 1.6 4.8 0.00 0.00 0.00 91 1006.5
20260506202013 13 225 1.6 3.2 0.00 0.00 0.00 91 1006.4
20260506201527 13 211 0.0 4.8 0.00 0.00 0.00 91 1006.5
20260506201009 13 212 1.6 4.8 0.00 0.00 0.00 91 1006.6
20260506200509 13 217 1.6 3.2 0.00 0.00 0.00 91 1006.7
20260506200026 13 56 1.6 6.4 0.00 0.00 0.00 91 1006.6
20260506195509 13 208 1.6 6.4 0.00 0.00 0.00 91 1006.6
20260506195010 13 170 0.0 4.8 0.00 0.00 0.00 91 1006.6
20260506194530 13 142 1.6 6.4 0.00 0.00 0.00 91 1006.7
20260506194009 13 140 1.6 6.4 0.00 0.00 0.00 91 1006.7
20260506193509 14 152 1.6 4.8 0.00 0.00 0.00 91 1006.8
20260506193019 14 191 1.6 3.2 0.00 0.00 0.00 91 1006.8
20260506192507 14 180 0.0 1.6 0.00 0.00 0.00 92 1006.8
20260506192011 14 150 0.0 1.6 0.00 0.00 0.00 92 1006.8
20260506191524 13 192 0.0 3.2 0.00 0.00 0.00 92 1006.8
20260506191007 13 158 0.0 3.2 0.00 0.00 0.00 92 1006.9
20260506190510 13 143 1.6 3.2 0.00 0.00 0.00 92 1006.9
20260506190025 13 97 0.0 4.8 0.00 0.00 0.00 92 1006.9
20260506185509 13 164 0.0 4.8 0.00 0.00 0.00 92 1007.0
20260506185008 13 150 1.6 3.2 0.00 0.00 0.00 92 1007.0
20260506184528 13 201 1.6 3.2 0.00 0.00 0.00 92 1007.2
20260506184010 13 146 0.0 4.8 0.00 0.00 0.00 93 1007.2
20260506183512 13 107 1.6 4.8 0.00 0.00 0.00 92 1007.2
20260506183026 13 101 0.0 3.2 0.00 0.00 0.00 93 1007.2
20260506182510 13 153 1.6 3.2 0.00 0.00 0.00 92 1007.2
20260506182011 13 96 1.6 3.2 0.00 0.00 0.00 93 1007.4
20260506181526 13 160 1.6 3.2 0.00 0.00 0.00 92 1007.4
20260506181012 13 140 0.0 4.8 0.00 0.00 0.00 93 1007.5
20260506180514 13 109 1.6 4.8 0.00 0.00 0.00 92 1007.5
20260506180033 13 147 1.6 4.8 0.00 0.00 0.00 92 1007.5
20260506175511 13 172 1.6 3.2 0.00 0.00 0.00 93 1007.5
20260506175011 13 144 0.0 4.8 0.00 0.00 0.00 93 1007.5
20260506174527 13 208 1.6 4.8 0.00 0.00 0.00 92 1007.5
20260506174011 13 182 1.6 4.8 0.00 0.00 0.00 93 1007.6
20260506173505 13 85 1.6 4.8 0.00 0.00 0.00 92 1007.6
20260506173014 13 142 1.6 3.2 0.00 0.00 0.00 92 1007.6
20260506172505 13 146 0.0 4.8 0.00 0.00 0.00 92 1007.5
20260506172007 13 66 1.6 4.8 0.00 0.00 0.00 92 1007.6
20260506171536 13 150 1.6 3.2 0.00 0.00 0.00 92 1007.6
20260506171008 13 146 1.6 4.8 0.00 0.00 0.00 92 1007.6
20260506170509 13 191 1.6 4.8 0.00 0.00 0.00 92 1007.6
20260506170023 13 75 1.6 4.8 0.00 0.00 0.00 92 1007.6
20260506165506 13 174 1.6 6.4 0.00 0.00 0.00 92 1007.5
20260506165006 13 161 3.2 6.4 0.00 0.00 0.00 93 1007.6
20260506164524 13 125 1.6 4.8 0.00 0.00 0.00 93 1007.6
20260506164011 13 152 1.6 4.8 0.00 0.00 0.00 93 1007.6
20260506163507 13 96 0.0 6.4 0.00 0.00 0.00 93 1007.6
20260506163029 13 150 3.2 6.4 0.00 0.00 0.00 92 1007.8
20260506162509 13 150 1.6 6.4 0.00 0.00 0.00 93 1007.9
20260506162014 13 122 1.6 6.4 0.00 0.00 0.00 92 1007.7
20260506161521 13 119 1.6 9.7 0.00 0.00 0.00 92 1007.7
20260506161005 13 141 1.6 9.7 0.00 0.00 0.00 92 1007.6
20260506160507 13 136 1.6 11.3 0.00 0.00 0.00 92 1007.8
20260506160020 13 146 3.2 11.3 0.00 0.00 0.00 92 1007.8
20260506155511 13 62 1.6 6.4 0.00 0.00 0.00 92 1007.9
20260506155009 13 134 1.6 3.2 0.00 0.00 0.00 92 1007.9
20260506154525 13 162 1.6 3.2 0.00 0.00 0.00 92 1008.0
20260506154011 13 91 0.0 4.8 0.00 0.00 0.00 92 1008.1
20260506153514 13 94 1.6 8.0 0.00 0.00 0.00 92 1008.5
20260506153025 13 131 1.6 8.0 0.00 0.00 0.00 92 1008.6
20260506152507 13 143 1.6 6.4 0.00 0.00 0.00 92 1008.5
20260506152011 13 108 1.6 6.4 0.00 0.00 0.00 92 1008.3
20260506151526 13 134 1.6 4.8 0.00 0.00 0.00 91 1008.1
20260506151009 13 144 1.6 6.4 0.00 0.00 0.00 92 1008.1
20260506150511 13 202 1.6 6.4 0.00 0.00 0.00 91 1008.1
20260506150023 13 132 1.6 6.4 0.00 0.00 0.00 92 1008.1
20260506145506 13 144 1.6 6.4 0.00 0.00 0.00 91 1008.1
20260506145008 13 110 1.6 4.8 0.00 0.00 0.00 91 1008.1
20260506144519 13 167 1.6 4.8 0.00 0.00 0.00 91 1008.2
20260506144007 13 151 0.0 4.8 0.00 0.00 0.00 91 1008.2
20260506143508 13 77 1.6 4.8 0.00 0.00 0.00 91 1008.3
20260506143024 13 76 1.6 3.2 0.00 0.00 0.00 90 1008.3
20260506142509 13 123 0.0 3.2 0.00 0.00 0.00 91 1008.5
20260506142012 13 117 1.6 3.2 0.00 0.00 0.00 90 1008.6
20260506141526 13 127 0.0 3.2 0.00 0.00 0.00 90 1008.6
20260506141013 13 141 1.6 3.2 0.00 0.00 0.00 90 1008.8
20260506140511 13 159 0.0 3.2 0.00 0.00 0.00 90 1008.8
20260506140028 13 146 0.0 3.2 0.00 0.00 0.00 90 1008.9
20260506135509 13 63 1.6 3.2 0.00 0.00 0.00 90 1008.9
20260506135020 13 141 1.6 3.2 0.00 0.00 0.00 90 1009.0
20260506134603 13 144 0.0 3.2 0.00 0.00 0.00 90 1008.9
20260506134005 13 153 1.6 3.2 0.00 0.00 0.00 90 1009.0
20260506133508 13 143 0.0 3.2 0.00 0.00 0.00 89 1009.0
20260506133022 13 181 0.0 3.2 0.00 0.00 0.00 89 1009.2
20260506132510 13 76 1.6 6.4 0.00 0.00 0.00 88 1009.1
20260506132007 13 63 0.0 6.4 0.00 0.00 0.00 89 1009.1
20260506131527 13 153 3.2 4.8 0.00 0.00 0.00 88 1009.2
20260506131011 13 150 0.0 3.2 0.00 0.00 0.00 88 1009.2
20260506130509 13 152 1.6 3.2 0.00 0.00 0.00 87 1009.2
20260506130026 13 50 1.6 3.2 0.00 0.00 0.00 86 1009.1
20260506125512 13 97 1.6 4.8 0.00 0.00 0.00 86 1009.1
20260506125009 13 144 1.6 4.8 0.00 0.00 0.00 86 1009.1
20260506124526 13 141 0.0 4.8 0.00 0.00 0.00 85 1008.9
20260506124009 13 140 0.0 3.2 0.00 0.00 0.00 85 1008.9
20260506123507 13 105 1.6 3.2 0.00 0.00 0.00 85 1009.0
20260506123026 13 75 1.6 3.2 0.00 0.00 0.00 85 1008.9
20260506122508 13 86 1.6 3.2 0.00 0.00 0.00 85 1008.8
20260506122007 13 99 1.6 3.2 0.00 0.00 0.00 85 1008.8
20260506121519 13 129 0.0 4.8 0.00 0.00 0.00 84 1008.8
20260506121009 13 117 0.0 4.8 0.00 0.00 0.00 84 1008.8
20260506120506 13 67 0.0 4.8 0.00 0.00 0.00 84 1008.8
20260506120024 13 154 1.6 4.8 0.00 0.00 0.00 82 1008.8
20260506115515 14 143 1.6 4.8 0.00 0.00 0.00 82 1008.9
20260506115007 14 99 1.6 4.8 0.00 0.00 0.00 82 1009.0
20260506114534 14 186 1.6 6.4 0.00 0.00 0.00 81 1009.1
20260506114009 14 97 1.6 6.4 0.00 0.00 0.00 81 1009.0
20260506113510 14 75 1.6 6.4 0.00 0.00 0.00 79 1008.9
20260506113033 14 85 1.6 6.4 0.00 0.00 0.00 78 1008.9
20260506112510 14 80 0.0 4.8 0.00 0.00 0.00 77 1008.9
20260506112015 15 125 1.6 6.4 0.00 0.00 0.00 76 1009.0
20260506111525 15 97 0.0 6.4 0.00 0.00 0.00 76 1008.8
20260506111006 15 93 1.6 6.4 0.00 0.00 0.00 76 1008.8
20260506110509 15 134 1.6 3.2 0.00 0.00 0.00 76 1008.9
20260506110021 15 65 1.6 4.8 0.00 0.00 0.00 76 1008.8
20260506105508 15 137 0.0 4.8 0.00 0.00 0.00 75 1008.6
20260506105010 15 70 1.6 4.8 0.00 0.00 0.00 75 1008.6
20260506104526 15 140 0.0 4.8 0.00 0.00 0.00 75 1008.4
20260506104009 15 71 1.6 6.4 0.00 0.00 0.00 75 1008.5
20260506103508 15 86 1.6 6.4 0.00 0.00 0.00 75 1008.6
20260506103029 14 69 0.0 3.2 0.00 0.00 0.00 74 1008.5
20260506102510 14 131 0.0 4.8 0.00 0.00 0.00 74 1008.5
20260506102010 15 130 0.0 4.8 0.00 0.00 0.00 73 1008.4
20260506101528 15 139 1.6 3.2 0.00 0.00 0.00 73 1008.4
20260506101011 15 145 0.0 4.8 0.00 0.00 0.00 73 1008.5
20260506100508 15 96 1.6 4.8 0.00 0.00 0.00 72 1008.4
20260506100033 15 169 1.6 4.8 0.00 0.00 0.00 72 1008.6
20260506095510 15 81 1.6 4.8 0.00 0.00 0.00 71 1008.7
20260506095007 15 116 1.6 4.8 0.00 0.00 0.00 71 1008.6
20260506094524 15 102 1.6 4.8 0.00 0.00 0.00 70 1008.6
20260506094009 15 146 1.6 4.8 0.00 0.00 0.00 70 1008.6
20260506093510 15 159 0.0 3.2 0.00 0.00 0.00 70 1008.6
20260506093028 15 140 0.0 3.2 0.00 0.00 0.00 70 1008.5
20260506092512 15 111 1.6 4.8 0.00 0.00 0.00 69 1008.6
20260506092011 15 109 1.6 4.8 0.00 0.00 0.00 69 1008.5
20260506091528 15 60 1.6 3.2 0.00 0.00 0.00 69 1008.6
20260506091010 15 104 0.0 4.8 0.00 0.00 0.00 68 1008.6
20260506090511 15 103 1.6 4.8 0.00 0.00 0.00 68 1008.5
20260506090016 15 115 0.0 3.2 0.00 0.00 0.00 68 1008.6
20260506085507 15 148 0.0 1.6 0.00 0.00 0.00 67 1008.7
20260506085007 15 151 0.0 4.8 0.00 0.00 0.00 67 1008.8
20260506084504 15 82 1.6 4.8 0.00 0.00 0.00 67 1008.8
20260506084004 15 133 0.0 3.2 0.00 0.00 0.00 67 1008.9
20260506083504 15 154 0.0 3.2 0.00 0.00 0.00 66 1008.9
20260506083006 15 143 0.0 4.8 0.00 0.00 0.00 66 1008.8
20260506082503 15 102 0.0 4.8 0.00 0.00 0.00 66 1008.8
20260506082003 15 148 1.6 4.8 0.00 0.00 0.00 65 1008.8
20260506081511 15 143 1.6 4.8 0.00 0.00 0.00 65 1008.9
20260506081006 15 137 1.6 6.4 0.00 0.00 0.00 65 1008.9
20260506080504 16 134 1.6 6.4 0.00 0.00 0.00 65 1008.8
20260506073510 16 151 3.2 6.4 0.00 0.00 0.00 63 1009.1
20260506073004 16 160 1.6 6.4 0.00 0.00 0.00 63 1009.1
20260506072504 15 131 1.6 4.8 0.00 0.00 0.00 65 1009.1
20260506072003 15 144 1.6 6.4 0.00 0.00 0.00 65 1009.1
20260506071508 16 75 1.6 6.4 0.00 0.00 0.00 64 1009.0
20260506071004 16 141 1.6 3.2 0.00 0.00 0.00 63 1009.2
20260506070503 16 118 1.6 6.4 0.00 0.00 0.00 63 1009.1
20260506062507 16 139 0.0 3.2 0.00 0.00 0.00 63 1009.6
20260506062012 16 198 0.0 3.2 0.00 0.00 0.00 62 1009.7
20260506061534 16 148 1.6 3.2 0.00 0.00 0.00 62 1009.8
20260506061006 16 165 1.6 3.2 0.00 0.00 0.00 62 1009.9
20260506060508 16 155 0.0 4.8 0.00 0.00 0.00 62 1009.9
20260506051011 16 108 1.6 3.2 0.00 0.00 0.00 60 1010.0
20260506050508 16 144 0.0 4.8 0.00 0.00 0.00 60 1010.1
20260506045004 16 140 0.0 3.2 0.00 0.00 0.00 59 1010.2
20260506044512 16 145 0.0 3.2 0.00 0.00 0.00 58 1010.2
20260506044008 16 136 1.6 4.8 0.00 0.00 0.00 58 1010.1
20260506043504 16 143 1.6 6.4 0.00 0.00 0.00 59 1010.2
20260506043015 16 145 1.6 6.4 0.00 0.00 0.00 58 1010.2
20260506042504 16 143 1.6 4.8 0.00 0.00 0.00 58 1010.1
20260506042008 16 141 1.6 4.8 0.00 0.00 0.00 58 1010.2
20260506041517 16 149 1.6 4.8 0.00 0.00 0.00 57 1010.2
20260506041007 16 140 0.0 6.4 0.00 0.00 0.00 57 1010.3
20260506040508 17 150 0.0 6.4 0.00 0.00 0.00 56 1010.3
20260506040026 16 152 1.6 6.4 0.00 0.00 0.00 57 1010.1
20260506035507 16 129 1.6 3.2 0.00 0.00 0.00 57 1010.2
20260506035008 17 108 1.6 6.4 0.00 0.00 0.00 57 1010.2
20260506034526 17 93 1.6 6.4 0.00 0.00 0.00 56 1010.2
20260506034008 17 141 1.6 4.8 0.00 0.00 0.00 55 1010.3
20260506033502 17 160 0.0 4.8 0.00 0.00 0.00 55 1010.3
20260506033015 17 141 1.6 4.8 0.00 0.00 0.00 54 1010.2
20260506032503 17 149 1.6 6.4 0.00 0.00 0.00 54 1010.2
20260506032007 17 148 1.6 6.4 0.00 0.00 0.00 54 1010.1
20260506031521 17 183 1.6 4.8 0.00 0.00 0.00 54 1010.1
20260506031006 17 92 1.6 4.8 0.00 0.00 0.00 53 1010.1
20260506030506 17 161 1.6 6.4 0.00 0.00 0.00 53 1010.1
20260506030017 17 140 3.2 6.4 0.00 0.00 0.00 52 1010.1
20260506025509 17 153 1.6 6.4 0.00 0.00 0.00 53 1010.1
20260506025006 18 59 1.6 6.4 0.00 0.00 0.00 52 1010.2
20260506024536 18 158 3.2 6.4 0.00 0.00 0.00 51 1010.2
20260506024013 18 155 1.6 6.4 0.00 0.00 0.00 51 1010.2
20260506023513 18 150 1.6 8.0 0.00 0.00 0.00 51 1010.3
20260506023027 18 147 3.2 8.0 0.00 0.00 0.00 51 1010.2
20260506022509 18 133 1.6 6.4 0.00 0.00 0.00 50 1010.3
20260506022002 18 121 3.2 6.4 0.00 0.00 0.00 50 1010.3
20260506021511 18 76 1.6 8.0 0.00 0.00 0.00 50 1010.3
20260506021002 18 134 3.2 8.0 0.00 0.00 0.00 50 1010.3
20260506020502 18 50 1.6 6.4 0.00 0.00 0.00 51 1010.3
20260506020014 18 134 1.6 6.4 0.00 0.00 0.00 51 1010.3
20260506015508 18 131 3.2 6.4 0.00 0.00 0.00 49 1010.3
20260506015006 19 137 1.6 4.8 0.00 0.00 0.00 49 1010.2
20260506014522 18 156 1.6 4.8 0.00 0.00 0.00 49 1010.1
20260506014006 19 108 1.6 6.4 0.00 0.00 0.00 50 1010.1
20260506013507 19 131 1.6 6.4 0.00 0.00 0.00 49 1010.0
20260506013027 19 89 1.6 6.4 0.00 0.00 0.00 49 1009.9
20260506012509 19 141 1.6 6.4 0.00 0.00 0.00 50 1009.9
20260506012009 19 148 1.6 6.4 0.00 0.00 0.00 49 1009.9
20260506011555 19 122 1.6 4.8 0.00 0.00 0.00 47 1009.8
20260506011008 20 95 1.6 8.0 0.00 0.00 0.00 47 1009.8
20260506010506 20 127 3.2 8.0 0.00 0.00 0.00 46 1009.6
20260506010010 20 72 3.2 6.4 0.00 0.00 0.00 46 1009.5
20260506005503 20 125 3.2 6.4 0.00 0.00 0.00 46 1009.5
20260506005006 20 146 1.6 6.4 0.00 0.00 0.00 46 1009.5
20260506004519 20 73 3.2 6.4 0.00 0.00 0.00 45 1009.5
20260506004007 20 144 3.2 6.4 0.00 0.00 0.00 46 1009.4
20260506003509 20 138 3.2 6.4 0.00 0.00 0.00 45 1009.3
20260506003022 20 113 3.2 6.4 0.00 0.00 0.00 44 1009.2
20260506002509 20 58 1.6 6.4 0.00 0.00 0.00 46 1009.3
20260506002009 20 174 3.2 6.4 0.00 0.00 0.00 45 1009.2
20260506001524 20 103 1.6 4.8 0.00 0.00 0.00 46 1009.1
20260506001006 20 160 1.6 4.8 0.00 0.00 0.00 46 1009.1
20260506000514 20 148 3.2 6.4 0.00 0.00 0.00 45 1009.1
20260506000045 20 135 1.6 6.4 0.00 0.00 0.00 45 1009.1
20260505235509 20 159 3.2 6.4 0.00 0.00 0.00 46 1009.1
20260505235011 20 143 1.6 4.8 0.00 0.00 0.00 44 1009.1
20260505234526 21 121 3.2 4.8 0.00 0.00 0.00 45 1009.1
20260505234005 20 130 1.6 6.4 0.00 0.00 0.00 45 1008.9
20260505233506 21 115 3.2 6.4 0.00 0.00 0.00 44 1008.9
20260505233017 21 131 1.6 6.4 0.00 0.00 0.00 45 1009.0
20260505232512 21 117 3.2 6.4 0.00 0.00 0.00 44 1008.9